TimeEST,TemperatureF,Dew PointF,Humidity,Sea Level PressureIn,VisibilityMPH,Wind Direction,Wind SpeedMPH,Gust SpeedMPH,PrecipitationIn,Events,Conditions,WindDirDegrees,DateUTC
12:56 AM,21.0,18.1,89,30.29,10.0,Calm,Calm,-,N/A,,Overcast,0,2014-02-03 05:56:00
1:24 AM,21.2,17.6,86,30.19,10.0,Calm,Calm,-,N/A,,Overcast,0,2014-02-03 06:24:00
1:36 AM,21.2,17.6,86,30.18,10.0,NNE,5.8,-,N/A,,Overcast,20,2014-02-03 06:36:00
1:56 AM,21.0,16.2,81,30.25,10.0,North,5.8,-,N/A,,Overcast,10,2014-02-03 06:56:00
2:28 AM,21.2,15.8,80,30.18,10.0,NNE,8.1,-,N/A,,Overcast,20,2014-02-03 07:28:00
2:56 AM,21.0,14.0,74,30.26,10.0,North,8.1,-,N/A,,Overcast,10,2014-02-03 07:56:00
3:56 AM,21.0,15.1,78,30.27,10.0,North,6.9,-,N/A,,Partly Cloudy,360,2014-02-03 08:56:00
4:56 AM,21.0,15.1,78,30.24,10.0,North,8.1,-,N/A,,Overcast,360,2014-02-03 09:56:00
5:56 AM,20.1,15.1,81,30.23,10.0,NNE,12.7,-,N/A,,Partly Cloudy,20,2014-02-03 10:56:00
6:40 AM,19.4,15.8,86,30.14,10.0,NNE,12.7,-,N/A,,Mostly Cloudy,20,2014-02-03 11:40:00
6:56 AM,20.1,15.1,81,30.25,10.0,North,9.2,-,N/A,,Mostly Cloudy,360,2014-02-03 11:56:00
7:56 AM,20.1,15.1,81,30.27,10.0,North,8.1,-,N/A,,Overcast,10,2014-02-03 12:56:00
8:25 AM,19.4,15.8,86,30.20,10.0,North,8.1,-,N/A,,Scattered Clouds,360,2014-02-03 13:25:00
8:56 AM,20.1,14.0,77,30.31,10.0,North,10.4,-,N/A,,Clear,360,2014-02-03 13:56:00
9:56 AM,20.1,14.0,77,30.32,10.0,North,8.1,-,N/A,,Clear,360,2014-02-03 14:56:00
10:56 AM,20.1,14.0,77,30.34,10.0,North,8.1,-,N/A,,Clear,350,2014-02-03 15:56:00
11:56 AM,22.1,14.0,71,30.34,10.0,North,9.2,-,N/A,,Clear,10,2014-02-03 16:56:00
12:56 PM,23.0,15.1,72,30.33,10.0,WNW,10.4,-,N/A,,Mostly Cloudy,300,2014-02-03 17:56:00
1:35 PM,24.8,15.8,69,30.23,10.0,NNW,11.5,-,N/A,,Scattered Clouds,340,2014-02-03 18:35:00
1:56 PM,24.1,14.0,65,30.32,10.0,North,8.1,-,N/A,,Clear,10,2014-02-03 18:56:00
2:56 PM,25.2,15.1,66,30.33,10.0,NNW,9.2,-,N/A,,Clear,330,2014-02-03 19:56:00
3:56 PM,25.2,14.0,63,30.36,10.0,NNW,5.8,-,N/A,,Clear,330,2014-02-03 20:56:00
4:56 PM,24.1,14.0,65,30.37,10.0,North,4.6,-,N/A,,Clear,350,2014-02-03 21:56:00
5:56 PM,22.1,13.1,68,30.39,10.0,North,3.5,-,N/A,,Clear,350,2014-02-03 22:56:00
6:56 PM,19.0,12.0,74,30.42,10.0,Calm,Calm,-,N/A,,Clear,0,2014-02-03 23:56:00
7:56 PM,18.1,12.0,77,30.43,10.0,NNE,4.6,-,N/A,,Clear,20,2014-02-04 00:56:00
8:56 PM,16.2,11.1,81,30.43,10.0,Calm,Calm,-,N/A,,Clear,0,2014-02-04 01:56:00
9:56 PM,14.0,11.1,88,30.46,10.0,Calm,Calm,-,N/A,,Clear,0,2014-02-04 02:56:00
10:56 PM,13.1,10.0,88,30.46,10.0,Calm,Calm,-,N/A,,Clear,0,2014-02-04 03:56:00
11:56 PM,12.0,10.0,92,30.46,8.0,Calm,Calm,-,N/A,,Clear,0,2014-02-04 04:56:00